User: anonymous   Login
Location: Ostrava
(49.8330°N, 18.2830°E)
Time: 18:30:19
(UTC+01:00)
Language:

Iridium 7 - Orbit

View from above orbital plane
View from above orbital plane
View from above satellite
View from above satellite

Ground track
Ground track

The orbit data is extracted from the following two-line orbital elements,

1 24793U 97020B   14303.17905578  .00000511  00000-0  17551-3 0   323
2 24793 086.4002 000.6306 0002336 109.0679 303.1063 14.34216271915459
Epoch (UTC): 30 October 2014 04:17:50
Eccentricity: 0.0002336
inclination: 86.4002°
perigee height: 776 km
apogee height: 779 km
right ascension of ascending node: 0.6306°
argument of perigee: 109.0679°
revolutions per day: 14.34216271
mean anomaly at epoch: 303.1063°
orbit number at epoch: 91545

The dashed part of the orbit path shows where the satellite is in the earth's shadow,  

DLR